Flag for U.S.A. Weather past 2 weeks in Bozeman, Montana, U.S.A.

Now
57 °F

Sunny.


Feels Like: 57 °F
Forecast: 39 / 63 °F
Wind: No wind

Location: Gallatin Field

Current Time: May 22, 2015 at 10:19:35 AM

Latest Report: May 22, 2015 at 9:56 AM


Visibility: 10 mi

Pressure: 29.91 "Hg

Humidity: 60%

Dew point: 43 °F

Location of BozemanLocation

Historic Weather in Bozeman — Graph

°F

Bozeman temperature yesterday

Maximum temperature yesterday: 66 °F (at 1:56 PM)
Minimum temperature yesterday: 40 °F (at 4:56 AM)
Average temperature yesterday: 53 °F

Past Weeks' High & Low Weather Summary

 TemperatureHumidityPressure
High69 °F (May 13, 4:56 PM)97% (May 13, 4:56 AM)30.34 "Hg (May 13, 4:56 AM)
Low26 °F (May 11, 5:56 AM)21% (May 11, 1:56 PM)29.57 "Hg (May 16, 3:56 AM)
Average47 °F67%30.00 "Hg
* Reported May 7 8:56 AM — May 22 8:56 AM, Bozeman, Weather by CustomWeather, © 2015

Note: Actual official high and low records may vary slightly from our data, if they occured in-between our weather recording intervals... More about our weather records

Advertising

Bozeman weather history for previous 24 hours

 ConditionsComfort  
Time TempWeatherWind HumidityBarometerVisibility
8:56 AM
Fri, May 22
53 °FSunny.3 mph69%29.93 "Hg10 mi
7:56 AM50 °FSunny.No wind71%29.93 "Hg10 mi
6:56 AM43 °FSunny.3 mph89%29.95 "Hg10 mi
5:56 AM40 °FPassing clouds.3 mph89%29.94 "Hg10 mi
4:56 AM41 °FClear.5 mph86%29.95 "Hg10 mi
3:56 AM40 °FClear.No wind89%29.93 "Hg10 mi
2:56 AM42 °FClear.5 mph89%29.93 "Hg10 mi
1:56 AM43 °FClear.3 mph86%29.91 "Hg10 mi
12:56 AM49 °FClear.6 mph71%29.90 "Hg10 mi
11:56 PM
Thu, May 21
48 °FClear.6 mph74%29.91 "Hg10 mi
10:56 PM50 °FOvercast.No wind74%29.92 "Hg10 mi
9:56 PM53 °FClear.10 mph69%29.93 "Hg10 mi
8:56 PM55 °FSunny.13 mph59%29.92 "Hg10 mi
7:56 PM58 °FSunny.15 mph51%29.91 "Hg10 mi
6:56 PM61 °FPassing clouds.16 mph54%29.91 "Hg10 mi
5:56 PM63 °FPassing clouds.13 mph48%29.91 "Hg10 mi
4:56 PM61 °FPartly sunny.21 mph56%29.93 "Hg10 mi
3:56 PM63 °FBroken clouds.17 mph54%29.92 "Hg10 mi
2:56 PM61 °FLight rain. Cloudy.7 mph58%29.94 "Hg10 mi
1:56 PM66 °FPassing clouds.6 mph42%29.94 "Hg10 mi
12:56 PM64 °FSunny.3 mph45%29.95 "Hg10 mi
11:56 AM60 °FPassing clouds.3 mph49%29.98 "Hg10 mi
10:56 AM57 °FSunny.No wind53%30.01 "Hg10 mi
Weather by CustomWeather, © 2015

See weather overviewHow to use our weather pages